• MPC Preparation (Info)

  • MPEC 2014-G56 : 2014 GC45

    The following Minor Planet Electronic Circular may be linked-to from your own Web pages, but must not otherwise be redistributed electronically.

    A form allowing access to any MPEC is at the bottom of this page.


    Read MPEC 2014-G55 Read MPEC 2014-G57


    M.P.E.C. 2014-G56                                Issued 2014 Apr.  9, 12:08 UT
    
         The Minor Planet Electronic Circulars contain information on unusual
             minor planets and routine data on comets.  They are published
       on behalf of Commission 20 of the International Astronomical Union by the
              Minor Planet Center, Smithsonian Astrophysical Observatory,
                              Cambridge, MA 02138, U.S.A.
    
                 Prepared using the Tamkin Foundation Computer Network
    
                                  MPC@CFA.HARVARD.EDU
                URL https://www.minorplanetcenter.net/    ISSN 1523-6714
    
                                       2014 GC45
    
    Observations:
         K14G45C* C2014 04 05.42264 14 12 38.070+03 38 30.38         21.4 wLEG056F51
         K14G45C  C2014 04 05.43487 14 12 37.992+03 38 09.15         21.4 wLEG056F51
         K14G45C  C2014 04 05.44716 14 12 37.910+03 37 47.82         21.1 wLEG056F51
         K14G45C KC2014 04 07.34514 14 12 44.85 +02 39 56.5          20.4 RoEG056291
         K14G45C KC2014 04 07.34804 14 12 44.82 +02 39 51.0          20.4 RoEG056291
         K14G45C KC2014 04 07.35092 14 12 44.81 +02 39 45.3          20.4 RoEG056291
         K14G45C =C2014 04 07.42303 14 12 45.56 +02 37 34.2          20.6 RtEG056568
         K14G45C =C2014 04 07.42980 14 12 45.49 +02 37 21.3          20.5 RtEG056568
         K14G45C =C2014 04 07.43106 14 12 45.47 +02 37 18.8          20.6 RtEG056568
         K14G45C =C2014 04 07.43231 14 12 45.46 +02 37 16.4          20.5 RtEG056568
         K14G45C =C2014 04 07.43356 14 12 45.45 +02 37 13.9          20.6 RtEG056568
         K14G45C HC2014 04 08.30942 14 12 46.04 +02 08 40.9          20.7 RoEG056291
         K14G45C HC2014 04 08.31397 14 12 45.99 +02 08 31.9          20.5 RoEG056291
         K14G45C KC2014 04 08.98588414 12 44.87 +01 46 34.2          21.1 VqEG056K92
         K14G45C KC2014 04 08.99109614 12 44.79 +01 46 23.7          21.2 VqEG056K92
         K14G45C KC2014 04 08.99618314 12 44.70 +01 46 13.5          20.9 VqEG056K92
         K14G45C  C2014 04 09.06694814 12 43.78 +01 43 48.5          20.3 VqEG056K93
         K14G45C  C2014 04 09.06817214 12 43.75 +01 43 46.0          20.9 VqEG056K93
         K14G45C  C2014 04 09.06938414 12 43.72 +01 43 43.6          21.0 VqEG056K93
         K14G45C  C2014 04 09.07063214 12 43.72 +01 43 40.6          20.8 VqEG056K93
         K14G45C |C2014 04 09.18520 14 12 45.18 +01 39 44.2          21.0 VuEG056807
         K14G45C |C2014 04 09.19152 14 12 45.07 +01 39 31.2          21.0 VuEG056807
         K14G45C |C2014 04 09.19919 14 12 44.99 +01 39 15.5          21.2 VuEG056807
    
    Observer details:
    291 LPL/Spacewatch II.  Observer R. S. McMillan.  1.8-m f/2.7 reflector + CCD.
    568 Mauna Kea.  Observers R. J. Wainscoat, A. Draginda.  Measurers P. Veres,
        R. J. Wainscoat.  3.6-m Canada-France-Hawaii Telescope + CCD.
    807 Cerro Tololo.  Observers T. Linder, R. Holmes.  0.41-m f/11
        Ritchey-Chretien + CCD.
    F51 Pan-STARRS 1, Haleakala.  Observers N. Primak, A. Schultz, T. Goggia,
        M. Willman.  Measurer PS1 Science Consortium.  1.8-m Ritchey-Chretien
        + CCD.
    K92 Sutherland-LCOGT B.  Observer T. Lister.  1.0-m f/8 Ritchey-Chretien + CCD.
    K93 Sutherland-LCOGT C.  Observer T. Lister.  1.0-m f/8 Ritchey-Chretien + CCD.
    
    Orbital elements:
    2014 GC45                                                Earth MOID = 0.1835 AU
    Epoch 2014 May 23.0 TT = JDT 2456800.5                  MPC
    M   1.94057              (2000.0)            P               Q
    n   0.37383891     Peri.  198.20440     -0.58344403     +0.80458318
    a   1.9084453      Node    36.33179     -0.72000679     -0.44940405
    e   0.3785741      Incl.   10.76199     -0.37574364     -0.38817767
    P   2.64           H   22.6           G   0.15           U   7
    Residuals in seconds of arc
    140405 F51  0.0   0.1-    140407 568  0.2-  0.1-    140409 K93  0.2+  0.1+
    140405 F51  0.0   0.0     140407 568  0.1-  0.2-    140409 K93  0.0   0.1+
    140405 F51  0.1-  0.1+    140407 568  0.1-  0.3-    140409 K93  0.2-  0.2+
    140407 291  0.1+  0.1+    140408 291  0.2+  0.1+    140409 K93  0.0   0.3-
    140407 291  0.1+  0.2+    140408 291  0.3+  0.1+    140409 807  0.1-  0.0
    140407 291  0.4+  0.1-    140408 K92  0.1+  0.3-    140409 807  0.4-  0.0
    140407 568  0.2-  0.1-    140408 K92  0.0   0.2-    140409 807  0.0   0.1+
    140407 568  0.1-  0.0     140408 K92  0.3-  0.0
    
    Ephemeris:
    2014 GC45                a,e,i = 1.91, 0.38, 11                  q = 1.1860
    Date    TT    R. A. (2000) Decl.     Delta      r     Elong.  Phase     V
    2014 03 10    13 57 20.6 +10 49 29   0.4281  1.3511   140.5    27.9    22.6
    ...
    2014 03 25    14 09 03.3 +07 54 56   0.3283  1.2919   150.0    22.7    21.8
    ...
    2014 04 02    14 12 04.1 +05 10 49   0.2844  1.2644   155.9    18.8    21.3
    ...
    2014 04 08    14 12 45.4 +02 19 10   0.2562  1.2461   160.9    15.2    21.0
    2014 04 09    14 12 44.8 +01 45 48   0.2519  1.2432   161.8    14.6    20.9
    2014 04 10    14 12 42.2 +01 10 59   0.2478  1.2405   162.7    13.9    20.8
    ...
    2014 04 16    14 11 45.8 -02 49 55   0.2253  1.2250   168.5     9.4    20.4
    ...
    2014 04 24    14 08 57.7 -09 38 25   0.2028  1.2081   176.8     2.7    19.8
    ...
    2014 05 09    14 02 20.8 -25 36 44   0.1860  1.1890   163.7    13.8    20.1
    
    A. U. Tomatic                (C) Copyright 2014 MPC           M.P.E.C. 2014-G56
    

    Read MPEC 2014-G55 Read MPEC 2014-G57


    MPEC number:

    Enter an MPEC number in one of the following forms:

    • 1997-B01 (the full form)
    • J97B01 (the packed version of the full form)
    • B01 (the abbreviated form)